Simultaneous Nadir Overpasses (SNOs) Predictions

Prediction of SNOs between GOES-15 and TERRA Satellite Orbit:

Table of predicted SNOs for the next 14.0 days since TLE Epoch: 5/5/2017
Index Date Time (GOES-15) GOES-15 Lat,Lon TERRA Lat,Lon Distance(km) Time Diff (sec)
1 05/05/2017 19:12:56 -0.10,-135.38 -0.98,-131.11 484.61 80
2 05/06/2017 07:34:19 0.10,-135.33 -0.14,-136.30 110.96 80
3 05/08/2017 07:24:48 0.10,-135.29 0.52,-133.35 221.13 80
4 05/08/2017 19:46:04 -0.10,-135.32 0.55,-138.51 361.91 80
5 05/10/2017 19:33:52 -0.10,-135.28 -0.06,-135.55 30.54 80
6 05/12/2017 19:19:00 -0.11,-135.23 -0.69,-132.59 300.33 80
7 05/13/2017 07:40:23 0.11,-135.17 -0.48,-137.77 296.02 80
8 05/15/2017 07:30:51 0.11,-135.11 0.16,-134.81 34.10 80
9 05/17/2017 07:18:39 0.12,-135.05 0.81,-131.85 363.61 80
10 05/17/2017 19:39:54 -0.12,-135.07 0.31,-137.00 219.71 80




NCC Satellite Simultaneous Nadir Overpasses (SNOs) Prediction Service
